Iron Mountain, MI

4:36 AM CDT on October 24, 2017 (GMT -0500)
Ford

Weather History for KIMT - June, 2012

Change the Weather History Date:

Friday, June 8, 2012

  Actual Average Record
Temperature  
Mean Temperature 67 °F -  
Max Temperature 80 °F 74 °F 95 °F (1988)
Min Temperature 55 °F 48 °F 24 °F (1949)
Cooling Degree Days 2    
Growing Degree Days 17 (Base 50)    
Moisture  
Dew Point 60 °F    
Average Humidity 76    
Maximum Humidity 100    
Minimum Humidity 54    
Precipitation  
Precipitation 0.01 in - - ()
Sea Level Pressure  
Sea Level Pressure 29.88 in    
Wind  
Wind Speed 3 mph (WSW)    
Max Wind Speed 14 mph    
Max Gust Speed 24 mph    
Visibility 9 miles    
Events Thunderstorm    
Averages and records for this station are not official NWS values.
T = Trace of Precipitation, MM = Missing Value Source: NWS Daily Summary

Daily Weather History Graph

Daily Weather History Graph

Search for Another Location

Airport or City:

Trip Planner

Search our weather history database for the weather conditions in past years. The results will help you decide how hot, cold, wet, or windy it might be!

Date:

Astronomy

Jun. 08, 2012 Rise Set
Actual Time 5:02 AM CDT 8:40 PM CDT
Civil Twilight 4:24 AM CDT 9:18 PM CDT
Nautical Twilight 3:34 AM CDT 10:09 PM CDT
Astronomical Twilight 2:26 AM CDT 11:17 PM CDT
Moon 11:51 PM CDT (6/8) 9:53 AM CDT (6/8)
Length of Visible Light 16h 53m
Length of Day
15h 38m
Waning Gibbous, 77% of the Moon is Illuminated
Jun 8
Waning Gibbous
Jun 11
Last Quarter
Jun 19
New
Jun 26
First Quarter
Jul 3
Full

Hourly Weather History & Observations

Time (CDT) Temp. Dew Point Humidity Pressure Visibility Wind Dir Wind Speed Gust Speed Precip Events Conditions
12:54 AM 57.9 °F 55.9 °F 93% 29.99 in 9.0 mi Calm Calm - N/A   Clear
1:54 AM 57.9 °F 55.0 °F 90% 29.98 in 10.0 mi Calm Calm - N/A   Partly Cloudy
2:43 AM 55.4 °F 53.6 °F 94% 29.98 in 1.5 mi Calm Calm - N/A   Partly Cloudy
2:52 AM 55.4 °F 55.4 °F 100% 29.97 in 0.8 mi Calm Calm - N/A   Partly Cloudy
2:54 AM 55.9 °F 55.0 °F 97% 29.97 in 1.5 mi Calm Calm - N/A   Partly Cloudy
2:57 AM 55.4 °F 55.4 °F 100% 29.97 in 4.0 mi Calm Calm - N/A   Clear
3:54 AM 55.9 °F 54.0 °F 93% 29.96 in 4.0 mi Calm Calm - N/A   Clear
4:54 AM 55.9 °F 54.0 °F 93% 29.96 in 10.0 mi North 4.6 mph - N/A   Overcast
5:54 AM 59.0 °F 55.0 °F 87% 29.95 in 10.0 mi Calm Calm - N/A   Scattered Clouds
6:54 AM 64.0 °F 55.9 °F 75% 29.94 in 10.0 mi Calm Calm - N/A   Clear
7:54 AM 69.1 °F 57.9 °F 68% 29.95 in 10.0 mi WNW 5.8 mph - N/A   Partly Cloudy
8:54 AM 73.0 °F 59.0 °F 61% 29.94 in 10.0 mi West 5.8 mph - N/A   Clear
9:54 AM 75.9 °F 59.0 °F 56% 29.92 in 10.0 mi WNW 4.6 mph - N/A   Partly Cloudy
10:54 AM 77.0 °F 59.0 °F 54% 29.91 in 10.0 mi West 11.5 mph 18.4 mph N/A   Clear
11:54 AM 75.9 °F 60.1 °F 58% 29.91 in 10.0 mi West 12.7 mph - 0.00 in   Mostly Cloudy
12:54 PM 75.0 °F 60.1 °F 60% 29.92 in 10.0 mi West 13.8 mph 24.2 mph N/A   Clear
1:54 PM 71.1 °F 64.0 °F 78% 29.89 in 10.0 mi SSW 6.9 mph - 0.00 in   Scattered Clouds
2:54 PM 71.1 °F 64.0 °F 78% 29.87 in 10.0 mi SSW 4.6 mph - 0.01 in   Overcast
3:54 PM 75.0 °F 64.9 °F 71% 29.85 in 10.0 mi SW 5.8 mph - N/A   Mostly Cloudy
4:54 PM 77.0 °F 64.9 °F 66% 29.83 in 10.0 mi SSE 4.6 mph - N/A   Scattered Clouds
5:54 PM 79.0 °F 63.0 °F 58% 29.80 in 10.0 mi SSW 8.1 mph - N/A   Mostly Cloudy
6:54 PM 79.0 °F 63.0 °F 58% 29.78 in 10.0 mi SSW 5.8 mph - N/A   Mostly Cloudy
7:54 PM 77.0 °F 63.0 °F 62% 29.77 in 10.0 mi SSW 5.8 mph - N/A   Mostly Cloudy
8:54 PM 73.9 °F 63.0 °F 68% 29.76 in 10.0 mi SSW 3.5 mph - N/A   Mostly Cloudy
9:54 PM 71.1 °F 62.1 °F 73% 29.76 in 10.0 mi South 3.5 mph - 0.00 in   Mostly Cloudy
10:54 PM 70.0 °F 62.1 °F 76% 29.75 in 10.0 mi NNW 3.5 mph - N/A   Mostly Cloudy
11:03 PM 69.8 °F 62.6 °F 78% 29.77 in 10.0 mi North 5.8 mph - N/A Thunderstorm Overcast
11:18 PM 69.8 °F 62.6 °F 78% 29.78 in 10.0 mi NNW 8.1 mph - N/A   Overcast
11:54 PM 71.1 °F 62.1 °F 73% 29.76 in 10.0 mi West 3.5 mph - 0.00 in   Overcast